owner,sensor,date,latitude,longitude,vertical_datum,wind_speed,wind_to_direction,wind_speed_of_gust,qcFlag 
NDBC,ioos:station:wmo:42012:1,2015-09-01T00:50:00Z,30.0650,-87.5550,5.0,4.0,210.0,4.0,'1111122,1111122,1111122' 
NDBC,ioos:station:wmo:42012:1,2015-09-01T01:50:00Z,30.0650,-87.5550,5.0,3.0,220.0,4.0,'1111122,1111122,1111122' 
NDBC,ioos:station:wmo:42012:1,2015-09-01T02:50:00Z,30.0650,-87.5550,5.0,2.0,230.0,3.0,'1111122,1111122,1111122' 
NDBC,ioos:station:wmo:42012:1,2015-09-01T03:50:00Z,30.0650,-87.5550,5.0,3.0,250.0,3.0,'1111122,1111122,1111122' 
NDBC,ioos:station:wmo:42012:1,2015-09-01T04:50:00Z,30.0650,-87.5550,5.0,2.0,250.0,2.0,'1111122,1111122,1111122' 
NDBC,ioos:station:wmo:42012:1,2015-09-01T05:50:00Z,30.0650,-87.5550,5.0,1.0,240.0,1.0,'1111122,1111122,1111122' 
NDBC,ioos:station:wmo:42012:1,2015-09-01T06:50:00Z,30.0650,-87.5550,5.0,1.0,220.0,2.0,'1111122,1111122,1111122' 
NDBC,ioos:station:wmo:42012:1,2015-09-01T09:50:00Z,30.0650,-87.5550,5.0,2.0,360.0,3.0,'1111122,1111122,1111122' 
NDBC,ioos:station:wmo:42012:1,2015-09-01T10:50:00Z,30.0650,-87.5550,5.0,4.0,360.0,4.0,'1111122,1111122,1111122' 
NDBC,ioos:station:wmo:42012:1,2015-09-01T11:50:00Z,30.0650,-87.5550,5.0,5.0,360.0,6.0,'1111122,1111122,1111122' 
NDBC,ioos:station:wmo:42012:1,2015-09-01T12:50:00Z,30.0650,-87.5550,5.0,6.0,10.0,7.0,'1111122,1111122,1111122' 
NDBC,ioos:station:wmo:42012:1,2015-09-01T13:50:00Z,30.0650,-87.5550,5.0,6.0,10.0,8.0,'1111122,1111122,1111122' 
NDBC,ioos:station:wmo:42012:1,2015-09-01T15:50:00Z,30.0650,-87.5550,5.0,4.0,20.0,5.0,'1111122,1111122,1111122' 
NDBC,ioos:station:wmo:42012:1,2015-09-01T16:50:00Z,30.0650,-87.5550,5.0,3.0,10.0,3.0,'1111122,1111122,1111122' 
NDBC,ioos:station:wmo:42012:1,2015-09-01T17:50:00Z,30.0650,-87.5550,5.0,1.0,30.0,2.0,'1111122,1111122,1111122' 
NDBC,ioos:station:wmo:42012:1,2015-09-01T18:50:00Z,30.0650,-87.5550,5.0,1.0,140.0,2.0,'1111122,1111122,1111122' 
NDBC,ioos:station:wmo:42012:1,2015-09-01T19:50:00Z,30.0650,-87.5550,5.0,2.0,140.0,3.0,'1111122,1111122,1111122' 
NDBC,ioos:station:wmo:42012:1,2015-09-01T20:50:00Z,30.0650,-87.5550,5.0,3.0,170.0,3.0,'1111122,1111122,1111122' 
NDBC,ioos:station:wmo:42012:1,2015-09-01T21:50:00Z,30.0650,-87.5550,5.0,3.0,200.0,3.0,'1111122,1111122,1111122' 
NDBC,ioos:station:wmo:42012:1,2015-09-01T22:50:00Z,30.0650,-87.5550,5.0,4.0,200.0,4.0,'1111122,1111122,1111122' 
NDBC,ioos:station:wmo:42012:1,2015-09-01T23:50:00Z,30.0650,-87.5550,5.0,3.0,230.0,4.0,'1111122,1111122,1111122' 
NDBC,ioos:station:wmo:42012:1,2015-09-02T00:50:00Z,30.0650,-87.5550,5.0,3.0,240.0,4.0,'1111122,1111122,1111122' 
NDBC,ioos:station:wmo:42012:1,2015-09-02T01:50:00Z,30.0650,-87.5550,5.0,3.0,230.0,3.0,'1111122,1111122,1111122' 
NDBC,ioos:station:wmo:42012:1,2015-09-02T02:50:00Z,30.0650,-87.5550,5.0,2.0,250.0,3.0,'1111122,1111122,1111122' 
NDBC,ioos:station:wmo:42012:1,2015-09-02T03:50:00Z,30.0650,-87.5550,5.0,3.0,270.0,4.0,'1111122,1111122,1111122' 
NDBC,ioos:station:wmo:42012:1,2015-09-02T04:50:00Z,30.0650,-87.5550,5.0,3.0,280.0,3.0,'1111122,1111122,1111122' 
NDBC,ioos:station:wmo:42012:1,2015-09-02T05:50:00Z,30.0650,-87.5550,5.0,3.0,270.0,4.0,'1111122,1111122,1111122' 
NDBC,ioos:station:wmo:42012:1,2015-09-02T06:50:00Z,30.0650,-87.5550,5.0,3.0,260.0,4.0,'1111122,1111122,1111122' 
NDBC,ioos:station:wmo:42012:1,2015-09-02T08:50:00Z,30.0650,-87.5550,5.0,3.0,290.0,3.0,'1111122,1111122,1111122' 
NDBC,ioos:station:wmo:42012:1,2015-09-02T09:50:00Z,30.0650,-87.5550,5.0,2.0,300.0,2.0,'1111122,1111122,1111122' 
NDBC,ioos:station:wmo:42012:1,2015-09-02T10:50:00Z,30.0650,-87.5550,5.0,3.0,10.0,3.0,'1111122,1111122,1111122' 
NDBC,ioos:station:wmo:42012:1,2015-09-02T11:50:00Z,30.0650,-87.5550,5.0,3.0,360.0,4.0,'1111122,1111122,1111122' 
NDBC,ioos:station:wmo:42012:1,2015-09-02T12:50:00Z,30.0650,-87.5550,5.0,4.0,360.0,4.0,'1111122,1111122,1111122' 
NDBC,ioos:station:wmo:42012:1,2015-09-02T14:50:00Z,30.0650,-87.5550,5.0,3.0,20.0,4.0,'1111122,1111122,1111122' 
NDBC,ioos:station:wmo:42012:1,2015-09-02T15:50:00Z,30.0650,-87.5550,5.0,2.0,30.0,3.0,'1111122,1111122,1111122' 
NDBC,ioos:station:wmo:42012:1,2015-09-02T16:50:00Z,30.0650,-87.5550,5.0,2.0,40.0,3.0,'1111122,1111122,1111122' 
NDBC,ioos:station:wmo:42012:1,2015-09-02T17:50:00Z,30.0650,-87.5550,5.0,1.0,360.0,1.0,'1111122,1111122,1111122' 
NDBC,ioos:station:wmo:42012:1,2015-09-02T18:50:00Z,30.0650,-87.5550,5.0,1.0,210.0,2.0,'1111122,1111122,1111122' 
NDBC,ioos:station:wmo:42012:1,2015-09-02T19:50:00Z,30.0650,-87.5550,5.0,3.0,220.0,4.0,'1111122,1111122,1111122' 
NDBC,ioos:station:wmo:42012:1,2015-09-02T20:50:00Z,30.0650,-87.5550,5.0,3.0,220.0,4.0,'1111122,1111122,1111122' 
NDBC,ioos:station:wmo:42012:1,2015-09-02T21:50:00Z,30.0650,-87.5550,5.0,4.0,220.0,5.0,'1111122,1111122,1111122' 
NDBC,ioos:station:wmo:42012:1,2015-09-03T00:50:00Z,30.0650,-87.5550,5.0,3.0,250.0,4.0,'1111122,1111122,1111122' 
NDBC,ioos:station:wmo:42012:1,2015-09-03T02:50:00Z,30.0650,-87.5550,5.0,3.0,230.0,4.0,'1111122,1111122,1111122' 
NDBC,ioos:station:wmo:42012:1,2015-09-03T03:50:00Z,30.0650,-87.5550,5.0,3.0,250.0,4.0,'1111122,1111122,1111122' 
NDBC,ioos:station:wmo:42012:1,2015-09-03T04:50:00Z,30.0650,-87.5550,5.0,3.0,240.0,3.0,'1111122,1111122,1111122' 
NDBC,ioos:station:wmo:42012:1,2015-09-03T05:50:00Z,30.0650,-87.5550,5.0,3.0,220.0,4.0,'1111122,1111122,1111122' 
NDBC,ioos:station:wmo:42012:1,2015-09-03T07:50:00Z,30.0650,-87.5550,5.0,2.0,280.0,3.0,'1111122,1111122,1111122' 
NDBC,ioos:station:wmo:42012:1,2015-09-03T08:50:00Z,30.0650,-87.5550,5.0,2.0,300.0,3.0,'1111122,1111122,1111122' 
NDBC,ioos:station:wmo:42012:1,2015-09-03T09:50:00Z,30.0650,-87.5550,5.0,2.0,290.0,3.0,'1111122,1111122,1111122' 
NDBC,ioos:station:wmo:42012:1,2015-09-03T10:50:00Z,30.0650,-87.5550,5.0,2.0,350.0,3.0,'1111122,1111122,1111122' 
NDBC,ioos:station:wmo:42012:1,2015-09-03T11:50:00Z,30.0650,-87.5550,5.0,3.0,360.0,4.0,'1111122,1111122,1111122' 
NDBC,ioos:station:wmo:42012:1,2015-09-03T12:50:00Z,30.0650,-87.5550,5.0,3.0,350.0,4.0,'1111122,1111122,1111122' 
NDBC,ioos:station:wmo:42012:1,2015-09-03T13:50:00Z,30.0650,-87.5550,5.0,3.0,350.0,3.0,'1111122,1111122,1111122' 
NDBC,ioos:station:wmo:42012:1,2015-09-03T14:50:00Z,30.0650,-87.5550,5.0,2.0,360.0,3.0,'1111122,1111122,1111122' 
NDBC,ioos:station:wmo:42012:1,2015-09-03T15:50:00Z,30.0650,-87.5550,5.0,0.0,-9999.0,1.0,'1114422,1111122,1111122' 
NDBC,ioos:station:wmo:42012:1,2015-09-03T16:50:00Z,30.0650,-87.5550,5.0,0.0,-9999.0,1.0,'1114422,1111122,1111122' 
NDBC,ioos:station:wmo:42012:1,2015-09-03T17:50:00Z,30.0650,-87.5550,5.0,1.0,220.0,2.0,'1111122,1111122,1111122' 
NDBC,ioos:station:wmo:42012:1,2015-09-03T18:50:00Z,30.0650,-87.5550,5.0,2.0,230.0,2.0,'1111122,1111122,1111122' 
NDBC,ioos:station:wmo:42012:1,2015-09-03T19:50:00Z,30.0650,-87.5550,5.0,5.0,210.0,6.0,'1111122,1111122,1111122' 
NDBC,ioos:station:wmo:42012:1,2015-09-03T20:50:00Z,30.0650,-87.5550,5.0,7.0,220.0,8.0,'1111122,1111122,1111122' 
NDBC,ioos:station:wmo:42012:1,2015-09-03T23:50:00Z,30.0650,-87.5550,5.0,2.0,230.0,3.0,'1111122,1111122,1111122' 
NDBC,ioos:station:wmo:42012:1,2015-09-04T02:50:00Z,30.0650,-87.5550,5.0,3.0,280.0,4.0,'1111122,1111122,1111122' 
NDBC,ioos:station:wmo:42012:1,2015-09-04T03:50:00Z,30.0650,-87.5550,5.0,2.0,260.0,3.0,'1111122,1111122,1111122' 
NDBC,ioos:station:wmo:42012:1,2015-09-04T08:50:00Z,30.0650,-87.5550,5.0,2.0,250.0,3.0,'1111122,1111122,1111122' 
NDBC,ioos:station:wmo:42012:1,2015-09-04T09:50:00Z,30.0650,-87.5550,5.0,2.0,240.0,3.0,'1111122,1111122,1111122' 
NDBC,ioos:station:wmo:42012:1,2015-09-04T10:50:00Z,30.0650,-87.5550,5.0,2.0,250.0,3.0,'1111122,1111122,1111122' 
NDBC,ioos:station:wmo:42012:1,2015-09-04T11:50:00Z,30.0650,-87.5550,5.0,1.0,300.0,1.0,'1111122,1111122,1111122' 
NDBC,ioos:station:wmo:42012:1,2015-09-04T12:50:00Z,30.0650,-87.5550,5.0,1.0,290.0,2.0,'1111122,1111122,1111122' 
NDBC,ioos:station:wmo:42012:1,2015-09-04T13:50:00Z,30.0650,-87.5550,5.0,3.0,30.0,4.0,'1111122,1111122,1111122' 
NDBC,ioos:station:wmo:42012:1,2015-09-04T14:50:00Z,30.0650,-87.5550,5.0,3.0,40.0,4.0,'1111122,1111122,1111122' 
NDBC,ioos:station:wmo:42012:1,2015-09-04T15:50:00Z,30.0650,-87.5550,5.0,2.0,50.0,3.0,'1111122,1111122,1111122' 
NDBC,ioos:station:wmo:42012:1,2015-09-04T16:50:00Z,30.0650,-87.5550,5.0,4.0,200.0,7.0,'1111122,1111122,1111122' 
NDBC,ioos:station:wmo:42012:1,2015-09-04T17:50:00Z,30.0650,-87.5550,5.0,3.0,230.0,4.0,'1111122,1111122,1111122' 
NDBC,ioos:station:wmo:42012:1,2015-09-04T18:50:00Z,30.0650,-87.5550,5.0,3.0,220.0,4.0,'1111122,1111122,1111122' 
NDBC,ioos:station:wmo:42012:1,2015-09-04T19:50:00Z,30.0650,-87.5550,5.0,4.0,230.0,5.0,'1111122,1111122,1111122' 
NDBC,ioos:station:wmo:42012:1,2015-09-04T20:50:00Z,30.0650,-87.5550,5.0,3.0,230.0,4.0,'1111122,1111122,1111122' 
NDBC,ioos:station:wmo:42012:1,2015-09-04T21:50:00Z,30.0650,-87.5550,5.0,4.0,230.0,5.0,'1111122,1111122,1111122' 
NDBC,ioos:station:wmo:42012:1,2015-09-04T22:50:00Z,30.0650,-87.5550,5.0,5.0,240.0,6.0,'1111122,1111122,1111122' 
NDBC,ioos:station:wmo:42012:1,2015-09-04T23:50:00Z,30.0650,-87.5550,5.0,5.0,250.0,6.0,'1111122,1111122,1111122' 
NDBC,ioos:station:wmo:42012:1,2015-09-05T01:50:00Z,30.0650,-87.5550,5.0,3.0,270.0,4.0,'1111122,1111122,1111122' 
NDBC,ioos:station:wmo:42012:1,2015-09-05T06:50:00Z,30.0650,-87.5550,5.0,5.0,300.0,6.0,'1111122,1111122,1111122' 
NDBC,ioos:station:wmo:42012:1,2015-09-05T09:50:00Z,30.0650,-87.5550,5.0,4.0,340.0,5.0,'1111122,1111122,1111122' 
NDBC,ioos:station:wmo:42012:1,2015-09-05T10:50:00Z,30.0650,-87.5550,5.0,4.0,320.0,5.0,'1111122,1111122,1111122' 
NDBC,ioos:station:wmo:42012:1,2015-09-05T11:50:00Z,30.0650,-87.5550,5.0,3.0,350.0,3.0,'1111122,1111122,1111122' 
NDBC,ioos:station:wmo:42012:1,2015-09-05T12:50:00Z,30.0650,-87.5550,5.0,3.0,330.0,4.0,'1111122,1111122,1111122' 
NDBC,ioos:station:wmo:42012:1,2015-09-05T13:50:00Z,30.0650,-87.5550,5.0,3.0,340.0,4.0,'1111122,1111122,1111122' 
NDBC,ioos:station:wmo:42012:1,2015-09-05T14:50:00Z,30.0650,-87.5550,5.0,4.0,350.0,5.0,'1111122,1111122,1111122' 
NDBC,ioos:station:wmo:42012:1,2015-09-05T15:50:00Z,30.0650,-87.5550,5.0,3.0,50.0,3.0,'1111122,1111122,1111122' 
NDBC,ioos:station:wmo:42012:1,2015-09-05T16:50:00Z,30.0650,-87.5550,5.0,1.0,130.0,2.0,'1111122,1111122,1111122' 
NDBC,ioos:station:wmo:42012:1,2015-09-05T17:50:00Z,30.0650,-87.5550,5.0,2.0,200.0,2.0,'1111122,1111122,1111122' 
NDBC,ioos:station:wmo:42012:1,2015-09-05T18:50:00Z,30.0650,-87.5550,5.0,3.0,200.0,4.0,'1111122,1111122,1111122' 
NDBC,ioos:station:wmo:42012:1,2015-09-05T19:50:00Z,30.0650,-87.5550,5.0,3.0,210.0,4.0,'1111122,1111122,1111122' 
NDBC,ioos:station:wmo:42012:1,2015-09-05T20:50:00Z,30.0650,-87.5550,5.0,3.0,230.0,4.0,'1111122,1111122,1111122' 
NDBC,ioos:station:wmo:42012:1,2015-09-05T21:50:00Z,30.0650,-87.5550,5.0,4.0,260.0,5.0,'1111122,1111122,1111122' 
NDBC,ioos:station:wmo:42012:1,2015-09-05T22:50:00Z,30.0650,-87.5550,5.0,3.0,230.0,4.0,'1111122,1111122,1111122' 
NDBC,ioos:station:wmo:42012:1,2015-09-05T23:50:00Z,30.0650,-87.5550,5.0,2.0,250.0,3.0,'1111122,1111122,1111122' 
NDBC,ioos:station:wmo:42012:1,2015-09-06T00:50:00Z,30.0650,-87.5550,5.0,2.0,290.0,2.0,'1111122,1111122,1111122' 
NDBC,ioos:station:wmo:42012:1,2015-09-06T01:50:00Z,30.0650,-87.5550,5.0,3.0,320.0,3.0,'1111122,1111122,1111122' 
NDBC,ioos:station:wmo:42012:1,2015-09-06T02:50:00Z,30.0650,-87.5550,5.0,2.0,30.0,3.0,'1111122,1111122,1111122' 
NDBC,ioos:station:wmo:42012:1,2015-09-06T03:50:00Z,30.0650,-87.5550,5.0,2.0,10.0,3.0,'1111122,1111122,1111122' 
NDBC,ioos:station:wmo:42012:1,2015-09-06T05:50:00Z,30.0650,-87.5550,5.0,11.0,100.0,15.0,'1111122,1111122,1111122' 
NDBC,ioos:station:wmo:42012:1,2015-09-06T08:50:00Z,30.0650,-87.5550,5.0,5.0,110.0,6.0,'1111122,1111122,1111122' 
NDBC,ioos:station:wmo:42012:1,2015-09-06T09:50:00Z,30.0650,-87.5550,5.0,6.0,60.0,7.0,'1111122,1111122,1111122' 
NDBC,ioos:station:wmo:42012:1,2015-09-06T10:50:00Z,30.0650,-87.5550,5.0,6.0,90.0,7.0,'1111122,1111122,1111122' 
NDBC,ioos:station:wmo:42012:1,2015-09-06T11:50:00Z,30.0650,-87.5550,5.0,6.0,90.0,7.0,'1111122,1111122,1111122' 
NDBC,ioos:station:wmo:42012:1,2015-09-06T13:50:00Z,30.0650,-87.5550,5.0,5.0,80.0,6.0,'1111122,1111122,1111122' 
NDBC,ioos:station:wmo:42012:1,2015-09-06T14:50:00Z,30.0650,-87.5550,5.0,6.0,80.0,7.0,'1111122,1111122,1111122' 
NDBC,ioos:station:wmo:42012:1,2015-09-06T15:50:00Z,30.0650,-87.5550,5.0,6.0,70.0,8.0,'1111122,1111122,1111122' 
NDBC,ioos:station:wmo:42012:1,2015-09-06T16:50:00Z,30.0650,-87.5550,5.0,7.0,80.0,9.0,'1111122,1111122,1111122' 
NDBC,ioos:station:wmo:42012:1,2015-09-06T17:50:00Z,30.0650,-87.5550,5.0,7.0,80.0,8.0,'1111122,1111122,1111122' 
NDBC,ioos:station:wmo:42012:1,2015-09-06T18:50:00Z,30.0650,-87.5550,5.0,6.0,80.0,8.0,'1111122,1111122,1111122' 
NDBC,ioos:station:wmo:42012:1,2015-09-06T19:50:00Z,30.0650,-87.5550,5.0,7.0,100.0,8.0,'1111122,1111122,1111122' 
NDBC,ioos:station:wmo:42012:1,2015-09-06T20:50:00Z,30.0650,-87.5550,5.0,7.0,100.0,8.0,'1111122,1111122,1111122' 
NDBC,ioos:station:wmo:42012:1,2015-09-06T21:50:00Z,30.0650,-87.5550,5.0,6.0,100.0,7.0,'1111122,1111122,1111122' 
NDBC,ioos:station:wmo:42012:1,2015-09-06T22:50:00Z,30.0650,-87.5550,5.0,5.0,110.0,6.0,'1111122,1111122,1111122' 
NDBC,ioos:station:wmo:42012:1,2015-09-07T00:50:00Z,30.0650,-87.5550,5.0,6.0,120.0,7.0,'1111122,1111122,1111122' 
NDBC,ioos:station:wmo:42012:1,2015-09-07T01:50:00Z,30.0650,-87.5550,5.0,5.0,130.0,6.0,'1111122,1111122,1111122' 
NDBC,ioos:station:wmo:42012:1,2015-09-07T02:50:00Z,30.0650,-87.5550,5.0,5.0,110.0,7.0,'1111122,1111122,1111122' 
NDBC,ioos:station:wmo:42012:1,2015-09-07T03:50:00Z,30.0650,-87.5550,5.0,5.0,100.0,6.0,'1111122,1111122,1111122' 
NDBC,ioos:station:wmo:42012:1,2015-09-07T04:50:00Z,30.0650,-87.5550,5.0,4.0,100.0,5.0,'1111122,1111122,1111122' 
NDBC,ioos:station:wmo:42012:1,2015-09-07T05:50:00Z,30.0650,-87.5550,5.0,3.0,90.0,4.0,'1111122,1111122,1111122' 
NDBC,ioos:station:wmo:42012:1,2015-09-07T07:50:00Z,30.0650,-87.5550,5.0,4.0,70.0,5.0,'1111122,1111122,1111122' 
NDBC,ioos:station:wmo:42012:1,2015-09-07T09:50:00Z,30.0650,-87.5550,5.0,6.0,40.0,7.0,'1111122,1111122,1111122' 
NDBC,ioos:station:wmo:42012:1,2015-09-07T12:50:00Z,30.0650,-87.5550,5.0,5.0,50.0,6.0,'1111122,1111122,1111122' 
NDBC,ioos:station:wmo:42012:1,2015-09-07T13:50:00Z,30.0650,-87.5550,5.0,5.0,50.0,6.0,'1111122,1111122,1111122' 
NDBC,ioos:station:wmo:42012:1,2015-09-07T14:50:00Z,30.0650,-87.5550,5.0,6.0,60.0,7.0,'1111122,1111122,1111122' 
NDBC,ioos:station:wmo:42012:1,2015-09-07T15:50:00Z,30.0650,-87.5550,5.0,6.0,60.0,8.0,'1111122,1111122,1111122' 
NDBC,ioos:station:wmo:42012:1,2015-09-07T16:50:00Z,30.0650,-87.5550,5.0,6.0,60.0,7.0,'1111122,1111122,1111122' 
NDBC,ioos:station:wmo:42012:1,2015-09-07T17:50:00Z,30.0650,-87.5550,5.0,5.0,70.0,6.0,'1111122,1111122,1111122' 
NDBC,ioos:station:wmo:42012:1,2015-09-07T19:50:00Z,30.0650,-87.5550,5.0,4.0,120.0,5.0,'1111122,1111122,1111122' 
NDBC,ioos:station:wmo:42012:1,2015-09-07T20:50:00Z,30.0650,-87.5550,5.0,4.0,130.0,5.0,'1111122,1111122,1111122' 
NDBC,ioos:station:wmo:42012:1,2015-09-07T21:50:00Z,30.0650,-87.5550,5.0,3.0,130.0,4.0,'1111122,1111122,1111122' 
NDBC,ioos:station:wmo:42012:1,2015-09-07T22:50:00Z,30.0650,-87.5550,5.0,2.0,160.0,2.0,'1111122,1111122,1111122' 
NDBC,ioos:station:wmo:42012:1,2015-09-07T23:50:00Z,30.0650,-87.5550,5.0,1.0,140.0,2.0,'1111122,1111122,1111122' 
NDBC,ioos:station:wmo:42012:1,2015-09-08T00:50:00Z,30.0650,-87.5550,5.0,1.0,260.0,1.0,'1111122,1111122,1111122' 
NDBC,ioos:station:wmo:42012:1,2015-09-08T01:50:00Z,30.0650,-87.5550,5.0,1.0,300.0,2.0,'1111122,1111122,1111122' 
NDBC,ioos:station:wmo:42012:1,2015-09-08T02:50:00Z,30.0650,-87.5550,5.0,2.0,310.0,3.0,'1111122,1111122,1111122' 
NDBC,ioos:station:wmo:42012:1,2015-09-08T03:50:00Z,30.0650,-87.5550,5.0,1.0,260.0,2.0,'1111122,1111122,1111122' 
NDBC,ioos:station:wmo:42012:1,2015-09-08T04:50:00Z,30.0650,-87.5550,5.0,2.0,150.0,3.0,'1111122,1111122,1111122' 
NDBC,ioos:station:wmo:42012:1,2015-09-08T05:50:00Z,30.0650,-87.5550,5.0,3.0,310.0,6.0,'1111122,1111122,1111122' 
NDBC,ioos:station:wmo:42012:1,2015-09-08T06:50:00Z,30.0650,-87.5550,5.0,2.0,340.0,3.0,'1111122,1111122,1111122' 
NDBC,ioos:station:wmo:42012:1,2015-09-08T07:50:00Z,30.0650,-87.5550,5.0,5.0,90.0,6.0,'1111122,1111122,1111122' 
NDBC,ioos:station:wmo:42012:1,2015-09-08T08:50:00Z,30.0650,-87.5550,5.0,2.0,320.0,2.0,'1111122,1111122,1111122' 
NDBC,ioos:station:wmo:42012:1,2015-09-08T09:50:00Z,30.0650,-87.5550,5.0,3.0,320.0,3.0,'1111122,1111122,1111122' 
NDBC,ioos:station:wmo:42012:1,2015-09-08T10:50:00Z,30.0650,-87.5550,5.0,4.0,310.0,5.0,'1111122,1111122,1111122' 
NDBC,ioos:station:wmo:42012:1,2015-09-08T11:50:00Z,30.0650,-87.5550,5.0,4.0,330.0,5.0,'1111122,1111122,1111122' 
NDBC,ioos:station:wmo:42012:1,2015-09-08T12:50:00Z,30.0650,-87.5550,5.0,2.0,10.0,3.0,'1111122,1111122,1111122' 
NDBC,ioos:station:wmo:42012:1,2015-09-08T13:50:00Z,30.0650,-87.5550,5.0,3.0,40.0,5.0,'1111122,1111122,1111122' 
NDBC,ioos:station:wmo:42012:1,2015-09-08T14:50:00Z,30.0650,-87.5550,5.0,5.0,50.0,6.0,'1111122,1111122,1111122' 
NDBC,ioos:station:wmo:42012:1,2015-09-08T15:50:00Z,30.0650,-87.5550,5.0,4.0,70.0,5.0,'1111122,1111122,1111122' 
NDBC,ioos:station:wmo:42012:1,2015-09-08T17:50:00Z,30.0650,-87.5550,5.0,2.0,130.0,3.0,'1111122,1111122,1111122' 
NDBC,ioos:station:wmo:42012:1,2015-09-08T18:50:00Z,30.0650,-87.5550,5.0,3.0,150.0,4.0,'1111122,1111122,1111122' 
NDBC,ioos:station:wmo:42012:1,2015-09-08T19:50:00Z,30.0650,-87.5550,5.0,3.0,180.0,4.0,'1111122,1111122,1111122' 
NDBC,ioos:station:wmo:42012:1,2015-09-08T20:50:00Z,30.0650,-87.5550,5.0,3.0,190.0,4.0,'1111122,1111122,1111122' 
NDBC,ioos:station:wmo:42012:1,2015-09-08T22:50:00Z,30.0650,-87.5550,5.0,4.0,200.0,5.0,'1111122,1111122,1111122' 
NDBC,ioos:station:wmo:42012:1,2015-09-09T00:50:00Z,30.0650,-87.5550,5.0,5.0,210.0,6.0,'1111122,1111122,1111122' 
NDBC,ioos:station:wmo:42012:1,2015-09-09T01:50:00Z,30.0650,-87.5550,5.0,4.0,210.0,5.0,'1111122,1111122,1111122' 
NDBC,ioos:station:wmo:42012:1,2015-09-09T02:50:00Z,30.0650,-87.5550,5.0,4.0,220.0,5.0,'1111122,1111122,1111122' 
NDBC,ioos:station:wmo:42012:1,2015-09-09T03:50:00Z,30.0650,-87.5550,5.0,5.0,210.0,6.0,'1111122,1111122,1111122' 
NDBC,ioos:station:wmo:42012:1,2015-09-09T04:50:00Z,30.0650,-87.5550,5.0,5.0,210.0,6.0,'1111122,1111122,1111122' 
NDBC,ioos:station:wmo:42012:1,2015-09-09T05:50:00Z,30.0650,-87.5550,5.0,5.0,220.0,6.0,'1111122,1111122,1111122' 
NDBC,ioos:station:wmo:42012:1,2015-09-09T07:50:00Z,30.0650,-87.5550,5.0,5.0,230.0,6.0,'1111122,1111122,1111122' 
NDBC,ioos:station:wmo:42012:1,2015-09-09T08:50:00Z,30.0650,-87.5550,5.0,5.0,240.0,5.0,'1111122,1111122,1111122' 
NDBC,ioos:station:wmo:42012:1,2015-09-09T09:50:00Z,30.0650,-87.5550,5.0,4.0,240.0,6.0,'1111122,1111122,1111122' 
NDBC,ioos:station:wmo:42012:1,2015-09-09T10:50:00Z,30.0650,-87.5550,5.0,4.0,240.0,5.0,'1111122,1111122,1111122' 
NDBC,ioos:station:wmo:42012:1,2015-09-09T11:50:00Z,30.0650,-87.5550,5.0,3.0,250.0,5.0,'1111122,1111122,1111122' 
NDBC,ioos:station:wmo:42012:1,2015-09-09T12:50:00Z,30.0650,-87.5550,5.0,2.0,230.0,3.0,'1111122,1111122,1111122' 
NDBC,ioos:station:wmo:42012:1,2015-09-09T13:50:00Z,30.0650,-87.5550,5.0,2.0,250.0,3.0,'1111122,1111122,1111122' 
NDBC,ioos:station:wmo:42012:1,2015-09-09T14:50:00Z,30.0650,-87.5550,5.0,2.0,220.0,2.0,'1111122,1111122,1111122' 
NDBC,ioos:station:wmo:42012:1,2015-09-09T15:50:00Z,30.0650,-87.5550,5.0,1.0,180.0,2.0,'1111122,1111122,1111122' 
NDBC,ioos:station:wmo:42012:1,2015-09-09T16:50:00Z,30.0650,-87.5550,5.0,2.0,180.0,3.0,'1111122,1111122,1111122' 
NDBC,ioos:station:wmo:42012:1,2015-09-09T18:50:00Z,30.0650,-87.5550,5.0,3.0,160.0,5.0,'1111122,1111122,1111122' 
NDBC,ioos:station:wmo:42012:1,2015-09-09T19:50:00Z,30.0650,-87.5550,5.0,4.0,180.0,4.0,'1111122,1111122,1111122' 
NDBC,ioos:station:wmo:42012:1,2015-09-09T20:50:00Z,30.0650,-87.5550,5.0,6.0,170.0,6.0,'1111122,1111122,1111122' 
NDBC,ioos:station:wmo:42012:1,2015-09-09T21:50:00Z,30.0650,-87.5550,5.0,6.0,180.0,7.0,'1111122,1111122,1111122' 
NDBC,ioos:station:wmo:42012:1,2015-09-09T22:50:00Z,30.0650,-87.5550,5.0,6.0,200.0,8.0,'1111122,1111122,1111122' 
NDBC,ioos:station:wmo:42012:1,2015-09-09T23:50:00Z,30.0650,-87.5550,5.0,5.0,190.0,6.0,'1111122,1111122,1111122' 
NDBC,ioos:station:wmo:42012:1,2015-09-10T01:50:00Z,30.0650,-87.5550,5.0,6.0,210.0,7.0,'1111122,1111122,1111122' 
NDBC,ioos:station:wmo:42012:1,2015-09-10T02:50:00Z,30.0650,-87.5550,5.0,7.0,200.0,9.0,'1111122,1111122,1111122' 
NDBC,ioos:station:wmo:42012:1,2015-09-10T03:50:00Z,30.0650,-87.5550,5.0,5.0,180.0,7.0,'1111122,1111122,1111122' 
NDBC,ioos:station:wmo:42012:1,2015-09-10T04:50:00Z,30.0650,-87.5550,5.0,8.0,220.0,9.0,'1111122,1111122,1111122' 
NDBC,ioos:station:wmo:42012:1,2015-09-10T05:50:00Z,30.0650,-87.5550,5.0,7.0,230.0,8.0,'1111122,1111122,1111122' 
NDBC,ioos:station:wmo:42012:1,2015-09-10T07:50:00Z,30.0650,-87.5550,5.0,8.0,240.0,10.0,'1111122,1111122,1111122' 
NDBC,ioos:station:wmo:42012:1,2015-09-10T08:50:00Z,30.0650,-87.5550,5.0,8.0,260.0,9.0,'1111122,1111122,1111122' 
NDBC,ioos:station:wmo:42012:1,2015-09-10T09:50:00Z,30.0650,-87.5550,5.0,7.0,240.0,8.0,'1111122,1111122,1111122' 
NDBC,ioos:station:wmo:42012:1,2015-09-10T10:50:00Z,30.0650,-87.5550,5.0,8.0,260.0,10.0,'1111122,1111122,1111122' 
NDBC,ioos:station:wmo:42012:1,2015-09-10T11:50:00Z,30.0650,-87.5550,5.0,3.0,300.0,6.0,'1111122,1111122,1111122' 
NDBC,ioos:station:wmo:42012:1,2015-09-10T12:50:00Z,30.0650,-87.5550,5.0,7.0,300.0,8.0,'1111122,1111122,1111122' 
NDBC,ioos:station:wmo:42012:1,2015-09-10T13:50:00Z,30.0650,-87.5550,5.0,4.0,290.0,5.0,'1111122,1111122,1111122' 
NDBC,ioos:station:wmo:42012:1,2015-09-10T14:50:00Z,30.0650,-87.5550,5.0,4.0,300.0,5.0,'1111122,1111122,1111122' 
NDBC,ioos:station:wmo:42012:1,2015-09-10T15:50:00Z,30.0650,-87.5550,5.0,4.0,300.0,5.0,'1111122,1111122,1111122' 
NDBC,ioos:station:wmo:42012:1,2015-09-10T16:50:00Z,30.0650,-87.5550,5.0,3.0,290.0,4.0,'1111122,1111122,1111122' 
NDBC,ioos:station:wmo:42012:1,2015-09-10T17:50:00Z,30.0650,-87.5550,5.0,3.0,250.0,4.0,'1111122,1111122,1111122' 
NDBC,ioos:station:wmo:42012:1,2015-09-10T18:50:00Z,30.0650,-87.5550,5.0,5.0,240.0,6.0,'1111122,1111122,1111122' 
NDBC,ioos:station:wmo:42012:1,2015-09-10T19:50:00Z,30.0650,-87.5550,5.0,6.0,250.0,8.0,'1111122,1111122,1111122' 
NDBC,ioos:station:wmo:42012:1,2015-09-10T20:50:00Z,30.0650,-87.5550,5.0,10.0,250.0,11.0,'1111122,1111122,1111122' 
NDBC,ioos:station:wmo:42012:1,2015-09-10T22:50:00Z,30.0650,-87.5550,5.0,8.0,270.0,9.0,'1111122,1111122,1111122' 
NDBC,ioos:station:wmo:42012:1,2015-09-10T23:50:00Z,30.0650,-87.5550,5.0,5.0,330.0,6.0,'1111122,1111122,1111122' 
NDBC,ioos:station:wmo:42012:1,2015-09-11T02:50:00Z,30.0650,-87.5550,5.0,6.0,270.0,7.0,'1111122,1111122,1111122' 
NDBC,ioos:station:wmo:42012:1,2015-09-11T03:50:00Z,30.0650,-87.5550,5.0,6.0,270.0,8.0,'1111122,1111122,1111122' 
NDBC,ioos:station:wmo:42012:1,2015-09-11T04:50:00Z,30.0650,-87.5550,5.0,6.0,270.0,7.0,'1111122,1111122,1111122' 
NDBC,ioos:station:wmo:42012:1,2015-09-11T08:50:00Z,30.0650,-87.5550,5.0,4.0,290.0,5.0,'1111122,1111122,1111122' 
NDBC,ioos:station:wmo:42012:1,2015-09-11T09:50:00Z,30.0650,-87.5550,5.0,5.0,270.0,7.0,'1111122,1111122,1111122' 
NDBC,ioos:station:wmo:42012:1,2015-09-11T10:50:00Z,30.0650,-87.5550,5.0,7.0,270.0,8.0,'1111122,1111122,1111122' 
NDBC,ioos:station:wmo:42012:1,2015-09-11T11:50:00Z,30.0650,-87.5550,5.0,6.0,290.0,7.0,'1111122,1111122,1111122' 
NDBC,ioos:station:wmo:42012:1,2015-09-11T12:50:00Z,30.0650,-87.5550,5.0,6.0,290.0,7.0,'1111122,1111122,1111122' 
NDBC,ioos:station:wmo:42012:1,2015-09-11T14:50:00Z,30.0650,-87.5550,5.0,3.0,300.0,4.0,'1111122,1111122,1111122' 
NDBC,ioos:station:wmo:42012:1,2015-09-11T15:50:00Z,30.0650,-87.5550,5.0,2.0,280.0,3.0,'1111122,1111122,1111122' 
NDBC,ioos:station:wmo:42012:1,2015-09-11T16:50:00Z,30.0650,-87.5550,5.0,10.0,300.0,11.0,'1111122,1111122,1111122' 
NDBC,ioos:station:wmo:42012:1,2015-09-11T17:50:00Z,30.0650,-87.5550,5.0,7.0,290.0,8.0,'1111122,1111122,1111122' 
NDBC,ioos:station:wmo:42012:1,2015-09-11T18:50:00Z,30.0650,-87.5550,5.0,6.0,300.0,7.0,'1111122,1111122,1111122' 